Location: Hermaringen
(48.5952°N, 10.2585°E)
Time: 06:25:55
(UTC+00:00)

Cosmos 1943 Rocket - Pass Details

Date: 18 November 2025
Orbit: 812 x 841 km, 71.0° (Epoch: 06 December)

Event Time Altitude Azimuth Distance (km) Brightness Sun altitude
Rises 19:08:06 0° 263° (W) 3,376 6.3 -34.8°
Reaches altitude 10° 19:11:28 10° 283° (WNW) 2,440 5.4 -35.3°
Maximum altitude 19:15:01 17° 323° (NW) 1,993 4.5 -35.9°
Enters shadow 19:16:44 15° 345° (NNW) 2,105 4.5 -36.2°
